#�ϑ�����,���ϕ���,���ϕ���,�ő啗��,�ő啗����������,�ő�u�ԕ���,�ő�u�ԕ�����������
#(�N����),(m/s)   ,(16����),(m/s)   ,(16����)        ,(m/s)       ,(16����)            
2018/11/13 0:01,0.3,16,0.3,10,0.9,16
2018/11/13 0:02,0.3,16,0.3,10,0.6,16
2018/11/13 0:03,0.3,15,0.3,9,0.3,14
2018/11/13 0:04,0.3,16,0.3,9,0.5,4
2018/11/13 0:05,0.3,16,0.3,10,0.5,4
2018/11/13 0:06,0.3,16,0.3,11,0.5,3
2018/11/13 0:07,0.3,16,0.3,12,0.1,2
2018/11/13 0:08,0.3,16,0.3,15,0.1,14
2018/11/13 0:09,0.3,16,0.3,15,0.5,13
2018/11/13 0:10,0.3,15,0.3,15,0.8,13
2018/11/13 0:11,0.3,15,0.3,16,0.9,13
2018/11/13 0:12,0.3,15,0.3,16,0.6,14
2018/11/13 0:13,0.3,14,0.3,15,0.6,13
2018/11/13 0:14,0.3,14,0.3,16,0.5,12
2018/11/13 0:15,0.3,14,0.3,16,0.5,13
2018/11/13 0:16,0.4,13,0.4,13,0.8,12
2018/11/13 0:17,0.4,13,0.4,13,0.8,12
2018/11/13 0:18,0.4,12,0.4,13,0.1,7
2018/11/13 0:19,0.4,12,0.4,13,0.1,6
2018/11/13 0:20,0.3,12,0.4,13,0.5,4
2018/11/13 0:21,0.4,12,0.4,13,1.1,4
2018/11/13 0:22,0.4,12,0.4,13,0.8,3
2018/11/13 0:23,0.4,2,0.4,13,0.6,2
2018/11/13 0:24,0.4,2,0.4,13,0.4,2
2018/11/13 0:25,0.3,3,0.4,13,0.3,1
2018/11/13 0:26,0.3,3,0.3,13,0.3,4
2018/11/13 0:27,0.3,3,0.3,13,0.3,4
2018/11/13 0:28,0.3,3,0.3,12,0.1,3
2018/11/13 0:29,0.3,2,0.3,12,0.3,15
2018/11/13 0:30,0.3,2,0.3,12,0.6,16
2018/11/13 0:31,0.2,2,0.3,12,0.8,16
2018/11/13 0:32,0.2,1,0.2,13,0.6,16
2018/11/13 0:33,0.2,1,0.2,2,1,16
2018/11/13 0:34,0.3,1,0.3,2,1.3,16
2018/11/13 0:35,0.4,1,0.4,1,1.8,16
2018/11/13 0:36,0.5,16,0.5,16,1.6,16
2018/11/13 0:37,0.5,16,0.5,16,1.5,16
2018/11/13 0:38,0.7,16,0.7,16,1.6,15
2018/11/13 0:39,0.8,16,0.8,16,1.6,15
2018/11/13 0:40,0.8,15,0.8,16,1.3,15
2018/11/13 0:41,0.8,15,0.8,16,1,13
2018/11/13 0:42,0.9,15,0.9,15,1.1,13
2018/11/13 0:43,0.9,15,0.9,15,1.5,14
2018/11/13 0:44,0.9,15,0.9,15,1.3,14
2018/11/13 0:45,0.9,14,0.9,15,0.8,14
2018/11/13 0:46,0.8,14,0.9,15,0.8,10
2018/11/13 0:47,0.9,13,0.9,15,1.5,9
2018/11/13 0:48,0.8,13,0.9,15,1.3,8
2018/11/13 0:49,0.8,12,0.8,15,1.3,11
2018/11/13 0:50,0.8,12,0.8,15,1.3,9
2018/11/13 0:51,0.8,11,0.8,15,1.3,10
2018/11/13 0:52,0.8,11,0.8,15,1.3,9
2018/11/13 0:53,0.7,10,0.8,15,1,8
2018/11/13 0:54,0.7,10,0.7,15,0.8,8
2018/11/13 0:55,0.7,9,0.7,14,0.8,6
2018/11/13 0:56,0.7,8,0.7,14,0.8,6
2018/11/13 0:57,0.6,8,0.7,13,0.8,6
2018/11/13 0:58,0.6,7,0.6,13,0.5,3
2018/11/13 0:59,0.5,7,0.6,12,0.4,2
2018/11/13 1:00,0.4,6,0.5,12,0.1,1
2018/11/13 1:01,0.3,4,0.4,11,0.3,1
2018/11/13 1:02,0.3,4,0.3,11,0.1,2
2018/11/13 1:03,0.2,3,0.3,10,0.1,2
2018/11/13 1:04,0.2,2,0.2,9,0,2
2018/11/13 1:05,0.2,2,0.2,9,0.1,13
2018/11/13 1:06,0.1,1,0.2,8,0.6,13
2018/11/13 1:07,0.1,1,0.1,8,0.5,13
2018/11/13 1:08,0.1,16,0.1,7,0.5,14
2018/11/13 1:09,0.1,16,0.1,7,0.1,15
2018/11/13 1:10,0.1,16,0.1,5,0.4,3
2018/11/13 1:11,0.2,16,0.2,4,1,3
2018/11/13 1:12,0.3,1,0.3,3,1.4,3
2018/11/13 1:13,0.5,1,0.5,1,1.9,3
2018/11/13 1:14,0.6,1,0.6,1,1.9,3
2018/11/13 1:15,0.8,1,0.8,1,1.8,3
2018/11/13 1:16,0.8,2,0.8,1,1.1,2
2018/11/13 1:17,0.7,2,0.8,1,0.9,16
2018/11/13 1:18,0.7,2,0.8,1,0.8,16
2018/11/13 1:19,0.8,2,0.8,1,0.3,16
2018/11/13 1:20,0.7,2,0.8,1,0.3,15
2018/11/13 1:21,0.7,2,0.7,1,0.1,6
2018/11/13 1:22,0.6,2,0.7,1,0.6,5
2018/11/13 1:23,0.5,2,0.6,1,0.6,6
2018/11/13 1:24,0.4,2,0.5,1,0.8,6
2018/11/13 1:25,0.3,3,0.4,1,0.5,4
2018/11/13 1:26,0.2,3,0.3,2,0.8,16
2018/11/13 1:27,0.3,3,0.3,2,1,1
2018/11/13 1:28,0.3,3,0.3,2,1,2
2018/11/13 1:29,0.3,3,0.3,2,0.6,2
2018/11/13 1:30,0.4,3,0.4,2,1.3,3
2018/11/13 1:31,0.5,4,0.5,2,1.3,5
2018/11/13 1:32,0.6,3,0.6,2,1.4,4
2018/11/13 1:33,0.6,3,0.6,4,0.8,4
2018/11/13 1:34,0.6,3,0.6,4,0.8,3
2018/11/13 1:35,0.5,3,0.6,4,0.4,4
2018/11/13 1:36,0.5,2,0.5,4,0.6,12
2018/11/13 1:37,0.5,2,0.5,4,0.5,12
2018/11/13 1:38,0.5,2,0.5,4,1,16
2018/11/13 1:39,0.6,1,0.6,4,1.1,15
2018/11/13 1:40,0.6,16,0.6,4,1.8,16
2018/11/13 1:41,0.7,16,0.7,16,2.1,16
2018/11/13 1:42,0.7,16,0.7,16,1.4,1
2018/11/13 1:43,0.7,16,0.7,16,1.3,5
2018/11/13 1:44,0.8,16,0.8,16,1.8,6
2018/11/13 1:45,0.9,16,0.9,15,1.9,7
2018/11/13 1:46,1.1,1,1.1,1,2,6
2018/11/13 1:47,1.2,3,1.2,2,2.2,6
2018/11/13 1:48,1.3,4,1.3,3,2.5,6
2018/11/13 1:49,1.3,4,1.3,3,1.4,6
2018/11/13 1:50,1.3,5,1.4,4,2.6,5
2018/11/13 1:51,1.3,5,1.4,4,2.6,5
2018/11/13 1:52,1.4,5,1.4,4,2.5,4
2018/11/13 1:53,1.5,5,1.5,5,2.5,3
2018/11/13 1:54,1.5,5,1.5,5,2.5,3
2018/11/13 1:55,1.6,5,1.6,5,2.2,4
2018/11/13 1:56,1.5,5,1.6,5,1.8,4
2018/11/13 1:57,1.5,5,1.5,5,2,6
2018/11/13 1:58,1.4,5,1.4,5,2,6
2018/11/13 1:59,1.5,5,1.5,5,1.9,6
2018/11/13 2:00,1.5,5,1.5,5,1.9,6
2018/11/13 2:01,1.4,5,1.5,5,1.8,8
2018/11/13 2:02,1.4,5,1.4,5,1.9,7
2018/11/13 2:03,1.4,6,1.4,5,1.9,9
2018/11/13 2:04,1.2,7,1.3,5,1.8,9
2018/11/13 2:05,1.2,7,1.2,5,2,11
2018/11/13 2:06,1.2,8,1.2,5,1.3,11
2018/11/13 2:07,1.2,8,1.2,5,1.1,10
2018/11/13 2:08,1.1,9,1.1,5,1.3,12
2018/11/13 2:09,1.1,10,1.1,5,1.3,12
2018/11/13 2:10,1,10,1.1,5,1.3,11
2018/11/13 2:11,1,11,1,5,1.5,11
2018/11/13 2:12,1,11,1,5,2,9
2018/11/13 2:13,1,11,1,6,2.2,9
2018/11/13 2:14,1.1,11,1.1,7,2.1,10
2018/11/13 2:15,1.1,11,1.1,7,1.8,10
2018/11/13 2:16,1.1,11,1.1,8,2,9
2018/11/13 2:17,1.1,10,1.1,9,1.5,8
2018/11/13 2:18,1,10,1.1,9,1.3,8
2018/11/13 2:19,1,10,1,10,2.1,10
2018/11/13 2:20,1.1,10,1.1,11,2.4,11
2018/11/13 2:21,1.1,10,1.1,11,2,12
2018/11/13 2:22,1.2,10,1.2,10,1.9,10
2018/11/13 2:23,1.1,10,1.2,10,1.9,12
2018/11/13 2:24,1.1,10,1.1,10,1.6,12
2018/11/13 2:25,1.1,10,1.1,10,1.3,10
2018/11/13 2:26,1.1,10,1.1,10,2.2,10
2018/11/13 2:27,1.1,10,1.1,10,1.6,10
2018/11/13 2:28,1.1,11,1.1,10,0.8,10
2018/11/13 2:29,1.1,11,1.1,10,1.9,10
2018/11/13 2:30,1.2,11,1.2,10,2.2,12
2018/11/13 2:31,1.2,11,1.2,10,2.7,13
2018/11/13 2:32,1.3,11,1.3,11,2.6,13
2018/11/13 2:33,1.3,11,1.3,11,2.4,12
2018/11/13 2:34,1.2,11,1.3,11,0.9,13
2018/11/13 2:35,1.2,11,1.2,11,1.3,8
2018/11/13 2:36,1.2,11,1.2,11,1.8,9
2018/11/13 2:37,1.2,11,1.2,11,2,10
2018/11/13 2:38,1.3,11,1.3,11,2,10
2018/11/13 2:39,1.3,11,1.4,11,1.6,11
2018/11/13 2:40,1.3,11,1.3,11,1.3,10
2018/11/13 2:41,1.1,11,1.2,11,1,9
2018/11/13 2:42,0.9,10,1.1,11,0.5,8
2018/11/13 2:43,0.8,10,0.9,11,0.5,10
2018/11/13 2:44,0.8,10,0.8,11,0.3,10
2018/11/13 2:45,0.7,10,0.8,11,0.6,9
2018/11/13 2:46,0.7,10,0.7,11,1.5,9
2018/11/13 2:47,0.6,9,0.7,11,1.3,9
2018/11/13 2:48,0.5,9,0.6,11,1.1,8
2018/11/13 2:49,0.5,9,0.5,11,1.4,9
2018/11/13 2:50,0.5,9,0.5,11,1.5,10
2018/11/13 2:51,0.6,9,0.6,11,1.3,10
2018/11/13 2:52,0.7,10,0.7,10,1.9,13
2018/11/13 2:53,0.8,10,0.8,10,2,14
2018/11/13 2:54,0.9,10,0.9,10,1.6,12
2018/11/13 2:55,1,11,1,11,1.5,10
2018/11/13 2:56,0.9,11,1,11,0.3,11
2018/11/13 2:57,0.8,11,0.9,11,0.1,8
2018/11/13 2:58,0.8,11,0.8,11,1,9
2018/11/13 2:59,0.8,11,0.8,11,1.8,8
2018/11/13 3:00,0.9,11,0.9,11,1.6,10
2018/11/13 3:01,0.9,11,0.9,11,2.5,9
2018/11/13 3:02,0.8,10,0.9,11,1.1,9
2018/11/13 3:03,0.8,10,0.8,11,1,11
2018/11/13 3:04,0.6,10,0.7,11,0.5,12
2018/11/13 3:05,0.6,10,0.6,11,0.8,8
2018/11/13 3:06,0.7,10,0.7,11,1.4,10
2018/11/13 3:07,0.8,10,0.8,11,1.1,8
2018/11/13 3:08,0.8,10,0.8,11,0.9,9
2018/11/13 3:09,0.7,10,0.7,11,1,7
2018/11/13 3:10,0.7,9,0.7,11,1.3,7
2018/11/13 3:11,0.5,9,0.6,11,0.1,6
2018/11/13 3:12,0.5,9,0.5,10,0.1,12
2018/11/13 3:13,0.4,9,0.5,10,0.3,10
2018/11/13 3:14,0.4,9,0.4,10,0.6,14
2018/11/13 3:15,0.4,9,0.4,10,0.6,12
2018/11/13 3:16,0.4,9,0.4,10,1,11
2018/11/13 3:17,0.4,10,0.4,10,1.1,11
2018/11/13 3:18,0.4,10,0.4,10,0.6,9
2018/11/13 3:19,0.3,10,0.4,10,0.6,11
2018/11/13 3:20,0.3,11,0.3,9,0.4,2
2018/11/13 3:21,0.3,11,0.3,9,0.6,6
2018/11/13 3:22,0.3,12,0.3,9,0.6,6
2018/11/13 3:23,0.4,11,0.4,9,1.3,6
2018/11/13 3:24,0.5,9,0.5,10,1.3,6
2018/11/13 3:25,0.5,8,0.5,10,1.3,6
2018/11/13 3:26,0.5,6,0.5,10,1,6
2018/11/13 3:27,0.6,5,0.6,6,1.5,3
2018/11/13 3:28,0.6,5,0.6,6,1.3,3
2018/11/13 3:29,0.7,4,0.7,4,1,3
2018/11/13 3:30,0.7,4,0.7,4,1.4,16
2018/11/13 3:31,0.8,4,0.8,4,1.4,16
2018/11/13 3:32,0.8,3,0.8,4,1.1,16
2018/11/13 3:33,0.8,2,0.9,3,1.6,16
2018/11/13 3:34,0.8,2,0.9,3,1,2
2018/11/13 3:35,0.8,2,0.9,3,1.1,1
2018/11/13 3:36,0.8,2,0.8,3,0.8,4
2018/11/13 3:37,0.7,2,0.8,3,1,4
2018/11/13 3:38,0.8,2,0.8,3,1.8,5
2018/11/13 3:39,0.8,2,0.8,3,1.6,5
2018/11/13 3:40,0.9,3,0.9,3,1.9,5
2018/11/13 3:41,0.9,3,0.9,3,1.8,5
2018/11/13 3:42,0.9,4,0.9,3,1.4,5
2018/11/13 3:43,0.9,4,0.9,2,1.4,7
2018/11/13 3:44,0.9,5,0.9,2,1.1,6
2018/11/13 3:45,0.9,5,0.9,2,0.9,6
2018/11/13 3:46,0.9,5,0.9,2,0.8,16
2018/11/13 3:47,0.8,5,0.9,2,0.3,2
2018/11/13 3:48,0.7,4,0.8,2,0.3,1
2018/11/13 3:49,0.7,4,0.7,2,1,15
2018/11/13 3:50,0.6,3,0.6,3,0.5,16
2018/11/13 3:51,0.5,3,0.6,3,1,2
2018/11/13 3:52,0.5,2,0.5,4,1.3,2
2018/11/13 3:53,0.5,2,0.5,4,1,3
2018/11/13 3:54,0.4,1,0.5,5,0.9,2
2018/11/13 3:55,0.4,1,0.4,5,0.9,2
2018/11/13 3:56,0.4,2,0.4,5,0.5,6
2018/11/13 3:57,0.4,2,0.4,5,0.8,8
2018/11/13 3:58,0.4,2,0.4,4,0.6,9
2018/11/13 3:59,0.4,3,0.4,4,0.1,11
2018/11/13 4:00,0.4,2,0.4,3,1.4,14
2018/11/13 4:01,0.5,2,0.5,3,1.8,15
2018/11/13 4:02,0.6,1,0.6,1,2.4,16
2018/11/13 4:03,0.8,16,0.8,16,3.5,16
2018/11/13 4:04,1.1,16,1.1,16,3.8,16
2018/11/13 4:05,1.3,15,1.3,15,3.7,16
2018/11/13 4:06,1.5,15,1.5,15,3.2,16
2018/11/13 4:07,1.5,15,1.5,15,1.6,1
2018/11/13 4:08,1.5,16,1.5,15,0.5,2
2018/11/13 4:09,1.6,16,1.6,16,0.9,3
2018/11/13 4:10,1.6,1,1.6,16,1.8,4
2018/11/13 4:11,1.6,1,1.6,16,1.4,5
2018/11/13 4:12,1.4,2,1.5,16,0.8,5
2018/11/13 4:13,1.1,2,1.4,16,0.5,10
2018/11/13 4:14,0.8,2,1.1,16,0.1,12
2018/11/13 4:15,0.6,3,0.8,16,0.3,11
2018/11/13 4:16,0.4,6,0.6,16,0,11
2018/11/13 4:17,0.3,8,0.4,16,0.3,12
2018/11/13 4:18,0.3,9,0.3,16,0,12
2018/11/13 4:19,0.2,9,0.3,16,0.3,7
2018/11/13 4:20,0.1,10,0.2,1,0.3,11
2018/11/13 4:21,0.1,10,0.1,1,0.5,11
2018/11/13 4:22,0.1,11,0.1,2,0.8,12
2018/11/13 4:23,0.1,11,0.1,2,0.4,12
2018/11/13 4:24,0.2,11,0.2,2,0.9,12
2018/11/13 4:25,0.3,11,0.3,3,1.4,12
2018/11/13 4:26,0.4,11,0.4,6,1.4,12
2018/11/13 4:27,0.5,11,0.5,11,1.4,11
2018/11/13 4:28,0.6,11,0.6,11,1.4,11
2018/11/13 4:29,0.7,12,0.7,11,1.3,12
2018/11/13 4:30,0.8,12,0.8,12,1.6,16
2018/11/13 4:31,0.8,12,0.8,12,1,1
2018/11/13 4:32,0.8,12,0.8,12,0.8,14
2018/11/13 4:33,0.9,13,0.9,13,1.3,12
2018/11/13 4:34,1,12,1,12,1.8,11
2018/11/13 4:35,1,12,1,12,1.8,11
2018/11/13 4:36,1.1,12,1.1,12,1.9,11
2018/11/13 4:37,1.1,12,1.1,12,2,10
2018/11/13 4:38,1.2,12,1.2,12,1.9,11
2018/11/13 4:39,1.2,12,1.2,12,2,10
2018/11/13 4:40,1.2,11,1.2,12,1.6,9
2018/11/13 4:41,1.3,11,1.3,11,1.4,10
2018/11/13 4:42,1.3,11,1.3,11,1.1,11
2018/11/13 4:43,1.3,11,1.3,11,1,12
2018/11/13 4:44,1.2,11,1.3,11,0.8,16
2018/11/13 4:45,1.1,11,1.2,11,0.3,13
2018/11/13 4:46,0.9,11,1,11,0.4,5
2018/11/13 4:47,0.7,10,0.9,11,0.3,3
2018/11/13 4:48,0.6,10,0.7,11,0.1,3
2018/11/13 4:49,0.4,10,0.6,11,0.4,10
2018/11/13 4:50,0.3,11,0.4,11,0.5,11
2018/11/13 4:51,0.3,12,0.3,11,0.1,12
2018/11/13 4:52,0.2,2,0.2,11,0.4,1
2018/11/13 4:53,0.1,2,0.2,11,1.1,1
2018/11/13 4:54,0.1,3,0.1,11,0.8,3
2018/11/13 4:55,0.2,2,0.2,11,1.1,3
2018/11/13 4:56,0.3,2,0.3,11,0.8,2
2018/11/13 4:57,0.3,2,0.3,10,1.3,2
2018/11/13 4:58,0.4,1,0.4,10,0.9,12
2018/11/13 4:59,0.4,1,0.4,10,1.1,15
2018/11/13 5:00,0.5,16,0.5,1,1.6,12
2018/11/13 5:01,0.7,16,0.7,16,2.5,10
2018/11/13 5:02,0.9,15,0.9,15,2.6,8
2018/11/13 5:03,0.9,12,0.9,15,1.6,10
2018/11/13 5:04,1,11,1,12,1.3,11
2018/11/13 5:05,1,11,1,12,1.5,9
2018/11/13 5:06,1,11,1,12,0.6,10
2018/11/13 5:07,1,10,1,12,1.6,7
2018/11/13 5:08,1,10,1,12,2,8
2018/11/13 5:09,1.1,9,1.1,9,1.6,6
2018/11/13 5:10,1.1,8,1.1,9,1.9,2
2018/11/13 5:11,1.1,8,1.1,9,2.9,1
2018/11/13 5:12,1,8,1.1,9,1.8,15
2018/11/13 5:13,1.2,5,1.2,5,4.9,1
2018/11/13 5:14,1.3,4,1.3,4,4.5,5
2018/11/13 5:15,1.4,3,1.4,4,3.2,4
2018/11/13 5:16,1.6,3,1.6,3,4.3,1
2018/11/13 5:17,1.8,3,1.8,3,5.4,3
2018/11/13 5:18,1.8,2,1.8,3,2.4,3
2018/11/13 5:19,1.8,2,1.8,3,1.3,3
2018/11/13 5:20,1.7,2,1.8,3,0.8,5
2018/11/13 5:21,1.5,2,1.7,3,1.3,13
2018/11/13 5:22,1.6,3,1.6,3,3.8,8
2018/11/13 5:23,1.6,3,1.7,3,4.5,2
2018/11/13 5:24,1.7,2,1.7,3,4.8,3
2018/11/13 5:25,1.8,2,1.8,3,4.9,3
2018/11/13 5:26,1.8,3,1.8,3,3.1,4
2018/11/13 5:27,1.7,3,1.8,3,2.9,6
2018/11/13 5:28,1.9,3,1.9,3,5.6,2
2018/11/13 5:29,2,3,2,3,5.8,3
2018/11/13 5:30,2.1,4,2.1,4,1.4,9
2018/11/13 5:31,2.2,4,2.2,4,3,6
2018/11/13 5:32,2.1,4,2.2,4,2.6,7
2018/11/13 5:33,2,5,2.1,4,3.6,8
2018/11/13 5:34,1.9,6,2,4,3.2,8
2018/11/13 5:35,1.6,6,1.8,4,1.3,5
2018/11/13 5:36,1.5,6,1.6,4,2.4,7
2018/11/13 5:37,1.6,7,1.6,4,3.8,9
2018/11/13 5:38,1.4,7,1.6,4,3.7,9
2018/11/13 5:39,1.4,8,1.4,4,3.5,9
2018/11/13 5:40,1.6,8,1.6,4,4.3,7
2018/11/13 5:41,1.8,8,1.8,4,5,7
2018/11/13 5:42,1.9,8,1.9,4,4.9,7
2018/11/13 5:43,1.8,8,1.9,5,3.1,6
2018/11/13 5:44,1.8,7,1.8,8,2.2,2
2018/11/13 5:45,1.9,7,1.9,8,2.1,9
2018/11/13 5:46,1.9,8,1.9,8,2.9,9
2018/11/13 5:47,1.9,8,2,8,3,8
2018/11/13 5:48,1.9,8,1.9,8,3.3,11
2018/11/13 5:49,1.9,8,1.9,8,3.2,10
2018/11/13 5:50,1.8,8,1.9,8,3.5,9
2018/11/13 5:51,1.7,9,1.8,8,3.7,9
2018/11/13 5:52,1.7,9,1.7,8,3.5,9
2018/11/13 5:53,1.8,10,1.8,8,3.9,9
2018/11/13 5:54,1.8,10,1.8,8,3.1,10
2018/11/13 5:55,1.9,10,1.9,8,1.8,9
2018/11/13 5:56,1.7,10,1.8,8,1.5,9
2018/11/13 5:57,1.7,9,1.7,8,2.7,8
2018/11/13 5:58,1.7,9,1.7,8,2.2,9
2018/11/13 5:59,1.7,9,1.7,8,2,9
2018/11/13 6:00,1.6,9,1.7,10,1.4,8
2018/11/13 6:01,1.4,9,1.6,10,0.8,9
2018/11/13 6:02,1.2,9,1.4,10,0.3,12
2018/11/13 6:03,1,9,1.2,10,0.9,10
2018/11/13 6:04,0.9,9,1,10,1.5,9
2018/11/13 6:05,1,9,1,10,2.4,8
2018/11/13 6:06,1.1,9,1.1,10,2.6,8
2018/11/13 6:07,1.1,9,1.1,9,1.9,8
2018/11/13 6:08,1,9,1.1,9,1.1,7
2018/11/13 6:09,0.9,8,1,9,0.5,4
2018/11/13 6:10,0.8,8,0.9,9,1.1,1
2018/11/13 6:11,0.9,8,0.9,9,1,2
2018/11/13 6:12,0.9,7,0.9,9,0.8,1
2018/11/13 6:13,0.9,6,0.9,9,1.8,8
2018/11/13 6:14,0.9,6,0.9,9,1.3,8
2018/11/13 6:15,0.7,5,0.9,9,0.3,14
2018/11/13 6:16,0.6,5,0.7,9,0.6,3
2018/11/13 6:17,0.5,4,0.5,9,0.9,6
2018/11/13 6:18,0.5,4,0.5,9,1.4,9
2018/11/13 6:19,0.6,5,0.6,8,1.1,6
2018/11/13 6:20,0.7,6,0.7,8,3.8,9
2018/11/13 6:21,0.8,7,0.8,8,2.4,8
2018/11/13 6:22,0.8,8,0.8,7,1.8,4
2018/11/13 6:23,0.8,7,0.8,6,3,1
2018/11/13 6:24,0.8,6,0.8,6,1.8,16
2018/11/13 6:25,1,5,1,5,2.7,5
2018/11/13 6:26,1.1,5,1.1,5,1.5,16
2018/11/13 6:27,1.1,2,1.1,5,1.6,15
2018/11/13 6:28,1.2,1,1.2,2,2.7,13
2018/11/13 6:29,1.3,16,1.3,1,2.6,12
2018/11/13 6:30,1.1,16,1.3,1,1.8,11
2018/11/13 6:31,1.2,15,1.2,1,2.5,12
2018/11/13 6:32,1.4,15,1.4,15,3.9,11
2018/11/13 6:33,1.6,14,1.6,14,5.1,14
2018/11/13 6:34,1.9,14,1.9,14,8.9,2
2018/11/13 6:35,2,14,2,14,5.6,3
2018/11/13 6:36,2.2,14,2.2,14,5.7,5
2018/11/13 6:37,2.4,14,2.4,14,4.5,2
2018/11/13 6:38,2.6,16,2.6,16,8.6,7
2018/11/13 6:39,2.8,1,2.8,16,7.7,7
2018/11/13 6:40,3.3,1,3.3,1,8.7,16
2018/11/13 6:41,3.5,2,3.5,1,7.8,15
2018/11/13 6:42,3.5,2,3.5,1,5.1,2
2018/11/13 6:43,3.5,2,3.5,1,4.7,3
2018/11/13 6:44,3.4,2,3.5,1,5.4,16
2018/11/13 6:45,3.4,2,3.4,1,8.2,2
2018/11/13 6:46,3.5,2,3.5,1,8.3,2
2018/11/13 6:47,3.8,2,3.8,2,13,4
2018/11/13 6:48,3.8,2,3.9,2,7.6,5
2018/11/13 6:49,3.7,2,3.9,2,4.4,3
2018/11/13 6:50,3.4,3,3.7,2,4.3,4
2018/11/13 6:51,3.4,4,3.5,2,6.5,4
2018/11/13 6:52,3.3,4,3.4,2,4.7,8
2018/11/13 6:53,3.2,4,3.3,2,3.6,15
2018/11/13 6:54,3.3,5,3.3,2,5.5,6
2018/11/13 6:55,3.2,5,3.4,2,6.2,5
2018/11/13 6:56,3,5,3.2,2,2.9,3
2018/11/13 6:57,2.7,5,3,2,3.8,6
2018/11/13 6:58,2.5,5,2.6,2,5.2,6
2018/11/13 6:59,2.4,6,2.5,3,3.6,8
2018/11/13 7:00,2.3,6,2.4,3,3.1,7
2018/11/13 7:01,2.1,6,2.3,4,2.7,8
2018/11/13 7:02,2.2,6,2.2,4,5.6,7
2018/11/13 7:03,2.3,6,2.3,4,4.7,8
2018/11/13 7:04,2.4,6,2.4,4,6.4,9
2018/11/13 7:05,2.3,7,2.4,5,5.5,9
2018/11/13 7:06,2.3,7,2.3,5,2.7,9
2018/11/13 7:07,2.3,8,2.3,5,2.7,11
2018/11/13 7:08,2.1,8,2.3,5,1.9,11
2018/11/13 7:09,2.1,9,2.2,6,2.7,13
2018/11/13 7:10,2.2,10,2.2,6,2.5,14
2018/11/13 7:11,2.1,10,2.2,6,2.9,10
2018/11/13 7:12,1.9,10,2.1,6,2.7,9
2018/11/13 7:13,1.8,11,1.9,6,2,9
2018/11/13 7:14,1.6,11,1.8,6,3.1,9
2018/11/13 7:15,1.3,11,1.5,7,0.8,3
2018/11/13 7:16,1.3,11,1.3,7,1.5,11
2018/11/13 7:17,1.3,11,1.3,8,2.7,12
2018/11/13 7:18,1.4,12,1.4,9,3,13
2018/11/13 7:19,1.3,11,1.4,10,2.5,13
2018/11/13 7:20,1.2,11,1.3,10,1.4,8
2018/11/13 7:21,1.3,10,1.3,10,3,9
2018/11/13 7:22,1.4,10,1.4,10,3.1,9
2018/11/13 7:23,1.4,10,1.4,11,2.9,8
2018/11/13 7:24,1.3,10,1.4,11,1.6,13
2018/11/13 7:25,1.4,10,1.4,12,1.5,4
2018/11/13 7:26,1.4,9,1.4,12,2.4,3
2018/11/13 7:27,1.4,8,1.4,12,2.1,10
2018/11/13 7:28,1.3,8,1.4,12,2.5,9
2018/11/13 7:29,1.5,8,1.5,8,5.5,15
2018/11/13 7:30,1.6,8,1.6,8,4.3,14
2018/11/13 7:31,1.6,6,1.6,8,5,1
2018/11/13 7:32,1.6,4,1.7,6,5.5,16
2018/11/13 7:33,1.7,3,1.7,6,2.5,3
2018/11/13 7:34,1.8,3,1.8,3,3.2,3
2018/11/13 7:35,1.8,2,1.8,3,3.9,13
2018/11/13 7:36,1.7,1,1.8,3,2.1,9
2018/11/13 7:37,1.7,16,1.7,3,2.7,9
2018/11/13 7:38,1.8,1,1.8,3,2.5,6
2018/11/13 7:39,1.6,3,1.8,3,2.6,5
2018/11/13 7:40,1.5,3,1.6,3,3.6,4
2018/11/13 7:41,1.4,3,1.5,3,3.7,4
2018/11/13 7:42,1.3,3,1.3,3,1.9,16
2018/11/13 7:43,1.2,3,1.3,3,1.1,5
2018/11/13 7:44,1.1,4,1.2,3,1.8,7
2018/11/13 7:45,1.1,5,1.1,2,2.4,8
2018/11/13 7:46,1.1,6,1.2,1,2.4,8
2018/11/13 7:47,1.1,6,1.1,1,1.3,11
2018/11/13 7:48,1.1,4,1.1,1,3.3,3
2018/11/13 7:49,1.1,5,1.1,3,3.3,3
2018/11/13 7:50,1.2,6,1.2,3,3.1,8
2018/11/13 7:51,1.3,7,1.3,3,2.7,7
2018/11/13 7:52,1.4,8,1.4,7,4.9,8
2018/11/13 7:53,1.5,8,1.5,8,3.3,8
2018/11/13 7:54,1.5,8,1.5,8,2.5,3
2018/11/13 7:55,1.4,8,1.5,8,1.3,15
2018/11/13 7:56,1.4,10,1.4,8,1.4,13
2018/11/13 7:57,1.4,9,1.4,8,1.5,8
2018/11/13 7:58,1.3,10,1.4,8,1.3,13
2018/11/13 7:59,1.4,11,1.4,8,4.3,13
2018/11/13 8:00,1.5,11,1.5,8,5.8,11
2018/11/13 8:01,1.6,11,1.6,11,4.3,8
2018/11/13 8:02,1.8,11,1.8,11,6,8
2018/11/13 8:03,1.9,11,1.9,11,5.6,9
2018/11/13 8:04,2,10,2,11,4.1,9
2018/11/13 8:05,2.1,10,2.1,10,2,9
2018/11/13 8:06,2.1,10,2.1,10,1.9,13
2018/11/13 8:07,2.2,10,2.2,10,2.7,9
2018/11/13 8:08,2.4,10,2.4,10,3.5,11
2018/11/13 8:09,2.3,10,2.4,10,3,10
2018/11/13 8:10,2.3,10,2.3,10,3,13
2018/11/13 8:11,2.2,10,2.3,10,3.9,14
2018/11/13 8:12,1.9,10,2.1,10,2.7,2
2018/11/13 8:13,1.8,11,1.8,10,3.2,10
2018/11/13 8:14,1.7,11,1.8,10,2,10
2018/11/13 8:15,1.6,11,1.7,10,0.6,11
2018/11/13 8:16,1.6,10,1.6,10,2.6,8
2018/11/13 8:17,1.5,10,1.6,10,1.8,10
2018/11/13 8:18,1.4,10,1.5,10,2.4,10
2018/11/13 8:19,1.3,10,1.4,10,1.1,7
2018/11/13 8:20,1.1,9,1.3,10,0.9,6
2018/11/13 8:21,0.9,8,1.1,10,0.4,7
2018/11/13 8:22,0.8,8,0.9,10,0.5,5
2018/11/13 8:23,0.6,8,0.8,11,1,9
2018/11/13 8:24,0.6,7,0.6,11,0.8,3
2018/11/13 8:25,0.6,7,0.6,11,1,1
2018/11/13 8:26,0.6,7,0.6,10,2.2,8
2018/11/13 8:27,0.7,6,0.7,10,3.1,15
2018/11/13 8:28,0.6,5,0.7,10,2.6,14
2018/11/13 8:29,0.6,5,0.6,10,0.9,7
2018/11/13 8:30,0.7,5,0.7,9,2.9,8
2018/11/13 8:31,0.7,4,0.7,8,1.5,12
2018/11/13 8:32,0.9,12,0.9,12,2.2,11
2018/11/13 8:33,0.9,14,0.9,12,1.6,12
2018/11/13 8:34,1,12,1,13,1.9,11
2018/11/13 8:35,1.1,11,1.1,11,3.1,7
2018/11/13 8:36,1.1,9,1.1,11,2.9,7
2018/11/13 8:37,1,8,1.1,11,1.1,9
2018/11/13 8:38,1,9,1,11,1.9,7
2018/11/13 8:39,1.2,9,1.2,9,2.7,8
2018/11/13 8:40,1.2,9,1.2,9,2.5,10
2018/11/13 8:41,1.3,9,1.3,9,3,10
2018/11/13 8:42,1.2,9,1.3,9,1.8,9
2018/11/13 8:43,1.2,9,1.2,9,1.8,11
2018/11/13 8:44,1.4,9,1.4,9,3.7,8
2018/11/13 8:45,1.4,9,1.5,9,3.6,9
2018/11/13 8:46,1.5,9,1.5,9,4.4,9
2018/11/13 8:47,1.7,9,1.7,9,3.8,10
2018/11/13 8:48,1.9,9,1.9,9,5.6,8
2018/11/13 8:49,2,9,2,9,5.6,8
2018/11/13 8:50,2,9,2,9,3.5,6
2018/11/13 8:51,2,8,2,9,3.5,3
2018/11/13 8:52,2.2,7,2.2,7,4.5,3
2018/11/13 8:53,2.5,7,2.5,7,10.1,16
2018/11/13 8:54,2.9,6,2.9,6,11,15
2018/11/13 8:55,3.2,5,3.2,5,9,16
2018/11/13 8:56,3.2,5,3.3,6,5.5,12
2018/11/13 8:57,3.3,16,3.3,6,6.4,16
2018/11/13 8:58,3.3,16,3.4,16,7.1,16
2018/11/13 8:59,3.3,15,3.3,16,3,14
2018/11/13 9:00,3.3,15,3.3,16,3.5,11
2018/11/13 9:01,3.3,14,3.3,16,2.6,11
2018/11/13 9:02,3.2,13,3.3,16,2.2,12
2018/11/13 9:03,2.8,13,3.2,16,3.2,1
2018/11/13 9:04,2.4,13,2.8,16,3,5
2018/11/13 9:05,2.1,14,2.3,16,3.7,16
2018/11/13 9:06,2.2,15,2.2,16,7.9,1
2018/11/13 9:07,2.1,15,2.3,16,7.4,16
2018/11/13 9:08,2,14,2,16,3.2,14
2018/11/13 9:09,1.9,14,2,15,2.2,4
2018/11/13 9:10,1.9,16,1.9,15,5.1,6
2018/11/13 9:11,2,1,2,14,4.3,4
2018/11/13 9:12,2.2,2,2.2,13,3.7,16
2018/11/13 9:13,2.2,2,2.2,13,4.2,7
2018/11/13 9:14,2.3,3,2.3,13,4.3,7
2018/11/13 9:15,2.3,4,2.3,15,4.3,6
2018/11/13 9:16,2.4,4,2.4,4,6.3,16
2018/11/13 9:17,2.6,4,2.6,4,8.6,1
2018/11/13 9:18,3.1,3,3.1,3,11.1,14
2018/11/13 9:19,3.5,3,3.5,3,8.5,2
2018/11/13 9:20,3.6,2,3.7,2,6.4,16
2018/11/13 9:21,3.5,2,3.6,2,3.9,16
2018/11/13 9:22,3.3,2,3.5,2,2.9,2
2018/11/13 9:23,3.3,2,3.4,2,3.8,1
2018/11/13 9:24,3.4,1,3.4,2,8.3,1
2018/11/13 9:25,3.6,1,3.6,2,7.1,16
2018/11/13 9:26,3.7,1,3.8,1,11.1,16
2018/11/13 9:27,3.7,1,3.8,1,7.7,2
2018/11/13 9:28,3.4,1,3.7,1,8.4,15
2018/11/13 9:29,3.2,1,3.4,1,7.2,16
2018/11/13 9:30,3.2,16,3.3,1,8.6,1
2018/11/13 9:31,3.2,16,3.2,1,4.7,16
2018/11/13 9:32,3.3,16,3.3,1,6.4,1
2018/11/13 9:33,3.5,16,3.5,1,8.5,1
2018/11/13 9:34,3.5,16,3.5,1,8.7,1
2018/11/13 9:35,3.5,16,3.5,1,7.7,15
2018/11/13 9:36,3.5,16,3.6,1,7.2,1
2018/11/13 9:37,3.5,16,3.5,1,8.6,16
2018/11/13 9:38,3.7,16,3.7,16,9.1,16
2018/11/13 9:39,3.7,16,3.7,16,11.4,1
2018/11/13 9:40,3.7,16,3.7,16,6.4,2
2018/11/13 9:41,3.8,16,3.8,16,7.4,16
2018/11/13 9:42,4,16,4,16,6.5,15
2018/11/13 9:43,3.8,16,3.9,16,6.8,2
2018/11/13 9:44,3.8,1,3.9,16,6.1,15
2018/11/13 9:45,3.9,1,4,16,9.2,1
2018/11/13 9:46,4,16,4,16,10.8,16
2018/11/13 9:47,4.1,16,4.1,16,11.6,1
2018/11/13 9:48,4.1,16,4.1,16,9.9,16
2018/11/13 9:49,4.2,16,4.3,16,9.2,16
2018/11/13 9:50,4.1,16,4.2,16,3.5,2
2018/11/13 9:51,3.8,16,4.1,16,2.6,15
2018/11/13 9:52,3.7,16,3.8,16,5.8,2
2018/11/13 9:53,4,16,4.1,16,10.1,16
2018/11/13 9:54,4.2,16,4.2,16,7.1,15
2018/11/13 9:55,4.2,16,4.2,16,8.2,16
2018/11/13 9:56,3.8,16,4.1,16,4.4,16
2018/11/13 9:57,3.6,16,3.8,16,7,15
2018/11/13 9:58,3.5,16,3.6,16,7.9,16
2018/11/13 9:59,3.3,16,3.5,16,6.2,1
2018/11/13 10:00,3.3,16,3.3,16,5.2,16
2018/11/13 10:01,3.5,16,3.5,16,5.5,1
2018/11/13 10:02,3.6,16,3.6,16,4.5,2
2018/11/13 10:03,3.4,16,3.5,16,5.8,1
2018/11/13 10:04,3.2,16,3.3,16,6.1,2
2018/11/13 10:05,2.9,16,3.2,16,6.7,1
2018/11/13 10:06,2.9,16,2.9,16,4.7,1
2018/11/13 10:07,2.9,16,2.9,16,5.6,1
2018/11/13 10:08,2.7,16,3,16,4.8,16
2018/11/13 10:09,2.6,16,2.7,16,6.2,15
2018/11/13 10:10,3,16,3,16,10,16
2018/11/13 10:11,3.2,16,3.2,16,7.2,15
2018/11/13 10:12,3.3,16,3.3,16,6.7,16
2018/11/13 10:13,3.2,16,3.3,16,4.4,2
2018/11/13 10:14,3.1,16,3.1,16,7.8,2
2018/11/13 10:15,3.3,16,3.3,16,7.5,2
2018/11/13 10:16,3.3,16,3.3,16,3.3,15
2018/11/13 10:17,3.2,16,3.3,16,6.5,15
2018/11/13 10:18,3.2,1,3.2,16,4.1,3
2018/11/13 10:19,3.4,1,3.4,1,4.8,3
2018/11/13 10:20,2.9,1,3.3,1,2.9,2
2018/11/13 10:21,2.6,1,2.8,1,2.6,4
2018/11/13 10:22,2.3,2,2.5,1,2.1,3
2018/11/13 10:23,2.2,2,2.3,1,1.6,16
2018/11/13 10:24,2,2,2.2,1,2.5,16
2018/11/13 10:25,1.8,1,2,1,3.5,16
2018/11/13 10:26,1.8,1,1.8,1,2.7,16
2018/11/13 10:27,1.5,2,1.8,1,1.9,16
2018/11/13 10:28,1.4,2,1.5,1,1.8,7
2018/11/13 10:29,1.1,2,1.3,1,1.1,15
2018/11/13 10:30,1.1,2,1.1,1,4.7,7
2018/11/13 10:31,1.4,3,1.4,1,7.2,4
2018/11/13 10:32,2,2,2,2,11.8,1
2018/11/13 10:33,2.5,2,2.5,2,8.3,16
2018/11/13 10:34,2.7,2,2.7,2,5.5,2
2018/11/13 10:35,2.8,2,2.8,2,6,3
2018/11/13 10:36,2.9,3,2.9,3,5.2,3
2018/11/13 10:37,3.3,3,3.3,3,6.3,3
2018/11/13 10:38,3.5,2,3.5,2,5.8,2
2018/11/13 10:39,3.8,3,3.8,2,5.8,3
2018/11/13 10:40,3.9,2,3.9,3,4.2,2
2018/11/13 10:41,3.8,2,3.9,3,6.1,4
2018/11/13 10:42,3.3,2,3.8,3,5.6,1
2018/11/13 10:43,3,2,3.3,3,6.8,15
2018/11/13 10:44,2.9,2,3,3,4.4,4
2018/11/13 10:45,2.8,2,2.9,3,3.8,3
2018/11/13 10:46,2.9,2,2.9,3,4.8,3
2018/11/13 10:47,2.7,2,2.9,3,3.7,2
2018/11/13 10:48,2.6,2,2.6,3,4.3,4
2018/11/13 10:49,2.7,2,2.7,3,5.6,2
2018/11/13 10:50,2.9,2,2.9,2,5.8,2
2018/11/13 10:51,2.6,2,2.9,2,2.9,2
2018/11/13 10:52,2.5,3,2.6,2,3.5,5
2018/11/13 10:53,2.5,3,2.5,2,4.9,3
2018/11/13 10:54,2.6,3,2.6,2,6.1,4
2018/11/13 10:55,2.7,3,2.7,2,5,1
2018/11/13 10:56,2.6,3,2.7,2,5.6,3
2018/11/13 10:57,2.7,3,2.7,2,5.5,5
2018/11/13 10:58,3.1,3,3.1,3,11.7,2
2018/11/13 10:59,3.2,3,3.2,3,8.3,1
2018/11/13 11:00,3.2,3,3.2,3,5.4,3
2018/11/13 11:01,3.4,2,3.4,2,7.5,2
2018/11/13 11:02,3.6,2,3.6,2,6.5,2